Temp
-11 -12 -12 -11 -11 -11 -11 -11 -12 -12 -13 -13 -14 -13 -13 -14 -14 -14 -14 -13 -13 -13 -12 -12 -12 -12 -11 -12 -12 -12 -12 -12 -12 -12 -13 -13 -14 -14 -14 -14 -14 -15 -15 -15 -14 -14 -14 -14 -14 -13 -13 -13 -12 -12 -11 -11 -10 -9 -8 -8 -7 -6 -5
-12 -12 -12 -12 -12 -11 -12 -12 -13 -13 -14 -14 -14 -14 -14 -14 -14 -14 -14 -14 -14 -14 -13 -13 -12 -12 -12 -12 -12 -12 -12 -12 -13 -13 -13 -13 -14 -14 -14 -14 -15 -15 -15 -15 -15 -15 -15 -15 -15 -14 -14 -13 -13 -12 -12 -11 -11 -10 -9 -8 -7 -6 -6
-12 -13 -13 -13 -13 -12 -12 -12 -13 -14 -14 -14 -15 -15 -15 -15 -15 -15 -14 -14 -14 -14 -14 -14 -13 -13 -13 -13 -12 -12 -12 -12 -13 -14 -14 -14 -14 -14 -15 -15 -15 -15 -16 -16 -16 -16 -15 -15 -15 -15 -15 -15 -14 -13 -13 -12 -11 -11 -10 -9 -8 -7 -6
-13 -13 -14 -14 -13 -13 -13 -13 -13 -14 -15 -15 -15 -15 -15 -15 -15 -15 -15 -15 -14 -14 -14 -14 -14 -14 -13 -13 -13 -12 -12 -12 -13 -13 -14 -14 -14 -14 -15 -15 -15 -15 -16 -16 -16 -16 -16 -16 -15 -15 -15 -15 -15 -14 -14 -13 -12 -11 -11 -10 -9 -8 -7
-13 -14 -14 -14 -14 -14 -13 -13 -13 -14 -15 -15 -16 -16 -16 -16 -16 -16 -16 -15 -15 -15 -15 -15 -15 -15 -14 -14 -13 -12 -12 -12 -12 -13 -13 -14 -14 -14 -14 -15 -15 -15 -16 -16 -16 -16 -16 -16 -16 -16 -15 -16 -15 -15 -15 -14 -13 -12 -11 -11 -10 -9 -8
-14 -14 -14 -15 -15 -14 -14 -13 -14 -15 -15 -16 -16 -16 -16 -16 -17 -16 -16 -16 -16 -15 -15 -16 -15 -15 -15 -15 -13 -12 -12 -12 -12 -12 -13 -13 -13 -14 -14 -14 -15 -15 -15 -16 -16 -16 -16 -16 -16 -16 -16 -16 -16 -16 -15 -15 -14 -13 -13 -12 -10 -10 -9
-14 -14 -15 -15 -15 -15 -14 -14 -14 -15 -16 -16 -16 -17 -17 -17 -17 -17 -17 -17 -17 -16 -16 -16 -16 -16 -16 -15 -13 -12 -12 -12 -12 -13 -13 -13 -13 -14 -14 -14 -14 -14 -15 -15 -16 -16 -16 -16 -16 -16 -16 -16 -16 -16 -16 -16 -15 -14 -14 -13 -12 -11 -10
-14 -15 -15 -15 -15 -15 -15 -15 -15 -15 -16 -16 -17 -17 -17 -17 -18 -18 -18 -18 -17 -17 -16 -16 -16 -16 -16 -15 -14 -13 -13 -12 -12 -13 -13 -13 -13 -13 -14 -14 -14 -14 -14 -15 -16 -16 -16 -16 -16 -16 -16 -16 -16 -16 -16 -16 -15 -15 -14 -14 -13 -12 -11
-15 -15 -15 -16 -16 -16 -16 -15 -15 -15 -16 -16 -17 -17 -18 -18 -18 -18 -18 -18 -18 -17 -17 -16 -16 -16 -15 -15 -14 -14 -13 -13 -12 -13 -13 -13 -13 -13 -14 -14 -14 -14 -14 -14 -15 -16 -16 -16 -16 -16 -16 -16 -16 -16 -16 -15 -15 -15 -15 -15 -14 -13 -12
-15 -16 -16 -16 -16 -16 -16 -16 -15 -15 -16 -16 -17 -18 -18 -18 -18 -19 -19 -18 -18 -18 -17 -16 -16 -16 -15 -15 -15 -14 -14 -13 -13 -13 -14 -13 -13 -13 -13 -13 -13 -13 -14 -14 -15 -15 -16 -16 -16 -16 -16 -16 -15 -15 -15 -15 -15 -16 -15 -15 -15 -14 -13
-16 -16 -16 -16 -16 -17 -16 -16 -15 -15 -16 -17 -18 -18 -18 -18 -18 -19 -19 -18 -18 -18 -17 -17 -17 -17 -16 -15 -15 -15 -14 -14 -14 -14 -14 -14 -14 -14 -14 -13 -13 -13 -13 -14 -14 -15 -15 -16 -16 -16 -16 -16 -15 -15 -15 -15 -15 -15 -15 -15 -15 -14 -14
-16 -16 -16 -17 -17 -17 -17 -16 -16 -15 -16 -17 -18 -18 -18 -19 -18 -18 -18 -18 -18 -18 -18 -18 -18 -18 -17 -16 -15 -14 -14 -15 -15 -15 -14 -14 -14 -14 -14 -14 -13 -13 -13 -13 -14 -14 -14 -15 -15 -15 -15 -15 -15 -15 -15 -15 -15 -16 -15 -15 -15 -15 -14
-16 -16 -17 -17 -17 -17 -17 -16 -16 -16 -16 -17 -18 -18 -18 -18 -18 -18 -18 -18 -18 -18 -18 -18 -18 -19 -18 -16 -15 -15 -15 -15 -15 -15 -15 -15 -15 -15 -14 -14 -14 -13 -13 -14 -14 -14 -14 -14 -14 -14 -14 -14 -14 -15 -15 -15 -15 -15 -15 -15 -15 -15 -14
-16 -17 -17 -17 -17 -17 -17 -17 -16 -16 -17 -18 -18 -18 -17 -18 -18 -18 -19 -19 -18 -18 -18 -18 -18 -19 -18 -17 -16 -15 -15 -15 -15 -15 -15 -15 -15 -15 -14 -14 -14 -14 -14 -14 -14 -14 -14 -14 -14 -14 -14 -14 -14 -14 -15 -15 -15 -15 -15 -15 -15 -15 -15
-16 -17 -17 -17 -17 -17 -17 -17 -16 -16 -17 -18 -18 -18 -18 -18 -18 -18 -19 -19 -19 -19 -19 -18 -19 -18 -18 -17 -16 -15 -15 -15 -15 -15 -15 -15 -15 -14 -14 -14 -14 -14 -14 -14 -14 -13 -13 -13 -14 -13 -14 -14 -14 -14 -14 -14 -14 -15 -15 -15 -15 -15 -15
-16 -17 -17 -17 -17 -18 -18 -17 -17 -17 -17 -18 -18 -18 -18 -18 -18 -18 -19 -19 -19 -19 -19 -19 -19 -19 -18 -17 -17 -15 -15 -15 -15 -15 -15 -15 -14 -14 -14 -13 -13 -14 -14 -14 -14 -13 -12 -13 -13 -13 -14 -14 -14 -14 -14 -14 -14 -14 -15 -15 -15 -15 -15
-17 -17 -17 -18 -18 -18 -18 -17 -17 -17 -18 -18 -18 -18 -18 -18 -18 -19 -19 -19 -19 -19 -19 -19 -19 -19 -18 -17 -16 -15 -15 -15 -15 -14 -14 -14 -14 -14 -14 -14 -14 -14 -14 -14 -14 -13 -13 -13 -13 -13 -14 -14 -14 -13 -14 -14 -14 -14 -14 -14 -15 -15 -15
-17 -17 -18 -18 -18 -18 -18 -17 -17 -17 -17 -18 -18 -18 -19 -19 -19 -19 -19 -19 -19 -19 -19 -19 -18 -18 -18 -17 -16 -15 -15 -15 -15 -15 -14 -14 -14 -14 -13 -14 -14 -14 -14 -14 -14 -14 -14 -13 -13 -13 -13 -13 -13 -13 -13 -13 -13 -13 -14 -14 -14 -15 -15
-18 -18 -18 -18 -18 -18 -18 -18 -17 -17 -17 -18 -18 -19 -19 -19 -19 -20 -19 -19 -19 -19 -19 -19 -18 -18 -18 -17 -16 -15 -15 -15 -15 -15 -14 -14 -14 -14 -13 -13 -13 -14 -14 -14 -13 -13 -13 -13 -13 -13 -13 -13 -13 -13 -13 -13 -13 -13 -14 -14 -14 -14 -14
-18 -18 -18 -18 -18 -18 -18 -18 -17 -17 -17 -18 -18 -19 -19 -19 -20 -20 -20 -19 -19 -19 -19 -19 -19 -18 -18 -17 -17 -16 -15 -15 -15 -14 -14 -13 -13 -13 -13 -13 -13 -13 -13 -13 -13 -12 -13 -13 -13 -13 -13 -13 -13 -13 -13 -13 -13 -13 -13 -13 -14 -14 -14
-18 -19 -19 -19 -19 -18 -18 -18 -18 -17 -17 -18 -18 -19 -19 -19 -20 -20 -20 -20 -19 -19 -19 -18 -18 -18 -17 -17 -16 -15 -15 -14 -14 -14 -13 -13 -13 -13 -12 -13 -13 -13 -13 -13 -13 -13 -13 -13 -12 -12 -12 -12 -13 -13 -13 -13 -13 -13 -13 -13 -13 -13 -13
-19 -19 -19 -19 -19 -19 -18 -18 -18 -17 -17 -18 -18 -19 -19 -20 -20 -20 -20 -19 -19 -19 -18 -18 -18 -17 -17 -16 -16 -15 -14 -14 -13 -13 -13 -13 -12 -12 -12 -12 -12 -12 -12 -12 -13 -13 -13 -12 -12 -12 -12 -12 -12 -12 -12 -13 -13 -13 -13 -13 -13 -13 -13
-19 -19 -19 -19 -19 -19 -18 -18 -18 -18 -18 -18 -18 -19 -19 -19 -20 -19 -19 -19 -19 -18 -18 -18 -17 -17 -16 -16 -15 -14 -14 -13 -13 -13 -13 -12 -12 -12 -12 -12 -12 -12 -12 -12 -12 -12 -12 -12 -12 -12 -12 -12 -12 -12 -12 -12 -13 -13 -13 -13 -12 -12 -12
-19 -20 -20 -19 -19 -19 -19 -18 -18 -18 -18 -18 -18 -18 -18 -19 -19 -19 -19 -19 -19 -18 -18 -18 -17 -17 -16 -15 -14 -13 -13 -13 -13 -13 -13 -12 -12 -12 -12 -12 -12 -12 -12 -12 -12 -12 -12 -12 -11 -11 -11 -11 -11 -12 -12 -12 -13 -13 -13 -13 -12 -12 -12
-20 -20 -20 -20 -20 -19 -19 -18 -18 -18 -18 -18 -18 -18 -18 -19 -19 -19 -18 -18 -18 -18 -18 -17 -16 -16 -15 -14 -14 -13 -13 -13 -13 -13 -13 -13 -13 -13 -13 -13 -12 -12 -12 -12 -12 -12 -12 -12 -12 -11 -11 -11 -11 -12 -12 -12 -13 -13 -13 -13 -12 -12 -12
-20 -20 -20 -20 -20 -19 -19 -19 -18 -18 -18 -18 -18 -18 -18 -18 -19 -19 -18 -18 -18 -18 -17 -17 -16 -15 -15 -14 -14 -14 -13 -13 -13 -13 -13 -13 -13 -13 -13 -13 -13 -13 -12 -12 -12 -12 -12 -12 -12 -12 -12 -12 -12 -12 -12 -12 -12 -12 -12 -12 -12 -12 -12
-21 -20 -20 -20 -20 -19 -19 -19 -18 -18 -18 -18 -17 -18 -18 -18 -18 -19 -19 -18 -18 -17 -17 -17 -16 -15 -14 -14 -14 -14 -14 -14 -14 -14 -14 -14 -14 -13 -13 -13 -13 -13 -13 -13 -12 -12 -12 -12 -12 -13 -13 -12 -12 -12 -12 -12 -12 -12 -12 -12 -12 -12 -12
-21 -20 -20 -20 -20 -19 -19 -19 -18 -18 -18 -18 -18 -18 -18 -18 -18 -18 -18 -18 -17 -17 -17 -16 -16 -15 -15 -14 -14 -14 -14 -14 -14 -14 -14 -14 -14 -14 -14 -14 -14 -14 -14 -14 -13 -13 -13 -13 -13 -13 -13 -13 -13 -13 -13 -13 -12 -12 -12 -12 -12 -12 -12
-21 -21 -20 -20 -20 -20 -19 -19 -18 -18 -18 -18 -18 -18 -18 -18 -18 -18 -18 -17 -17 -16 -16 -16 -16 -15 -15 -15 -15 -15 -14 -14 -14 -14 -14 -14 -15 -15 -14 -14 -14 -14 -14 -14 -14 -14 -14 -14 -14 -14 -14 -13 -13 -13 -13 -13 -13 -12 -12 -12 -12 -13 -13
-21 -21 -20 -20 -20 -20 -19 -19 -18 -19 -19 -18 -18 -18 -18 -18 -18 -17 -17 -16 -16 -16 -16 -16 -15 -15 -15 -15 -15 -15 -15 -15 -15 -15 -15 -15 -15 -15 -15 -15 -15 -15 -15 -15 -15 -15 -15 -15 -15 -15 -14 -14 -13 -13 -13 -13 -13 -13 -12 -12 -12 -13 -13
-21 -21 -21 -20 -20 -20 -19 -18 -18 -19 -19 -18 -18 -18 -18 -18 -17 -17 -17 -16 -16 -16 -16 -16 -16 -16 -16 -16 -16 -15 -15 -15 -15 -15 -15 -15 -15 -15 -15 -15 -15 -15 -15 -15 -15 -15 -15 -15 -15 -15 -15 -14 -14 -14 -13 -13 -13 -13 -13 -13 -13 -13 -13
-21 -21 -21 -20 -20 -20 -19 -18 -18 -18 -18 -18 -18 -17 -17 -17 -17 -17 -16 -16 -16 -16 -16 -16 -16 -16 -16 -16 -16 -16 -16 -16 -16 -16 -16 -16 -16 -16 -16 -16 -16 -16 -16 -16 -16 -16 -16 -16 -16 -16 -15 -15 -15 -14 -14 -13 -13 -13 -13 -13 -13 -13 -13
-20 -20 -20 -20 -20 -20 -19 -19 -18 -18 -18 -17 -17 -17 -17 -17 -16 -16 -16 -16 -16 -16 -16 -16 -16 -16 -16 -16 -16 -16 -16 -16 -16 -16 -16 -16 -16 -16 -16 -16 -16 -16 -16 -16 -16 -17 -17 -17 -17 -17 -16 -16 -16 -15 -15 -14 -13 -13 -13 -13 -13 -13 -13
-20 -20 -20 -20 -19 -19 -19 -19 -18 -18 -18 -17 -17 -17 -16 -16 -16 -16 -16 -16 -16 -16 -16 -16 -16 -16 -16 -16 -17 -17 -17 -16 -16 -16 -16 -16 -16 -16 -16 -16 -16 -16 -16 -16 -17 -17 -17 -17 -17 -17 -16 -16 -16 -15 -15 -14 -14 -13 -13 -13 -13 -13 -13
-21 -20 -20 -19 -19 -19 -19 -18 -18 -18 -18 -17 -17 -17 -17 -17 -17 -17 -17 -17 -17 -17 -17 -17 -17 -17 -17 -17 -17 -17 -17 -17 -17 -16 -16 -16 -16 -16 -16 -16 -16 -16 -16 -16 -17 -17 -17 -16 -16 -16 -16 -16 -16 -15 -15 -14 -14 -14 -14 -13 -13 -13 -13
-21 -20 -19 -19 -19 -19 -18 -18 -18 -18 -18 -17 -17 -17 -17 -17 -18 -18 -18 -18 -17 -17 -17 -17 -17 -18 -18 -18 -17 -17 -17 -17 -17 -17 -17 -17 -17 -17 -17 -17 -17 -16 -16 -16 -17 -16 -16 -16 -16 -16 -16 -16 -15 -15 -15 -15 -14 -14 -14 -13 -13 -12 -12
Height
1376 1376 1376 1376 1376 1376 1377 1377 1378 1377 1377 1376 1376 1377 1378 1379 1380 1381 1382 1384 1385 1387 1389 1390 1392 1392 1394 1395 1395 1396 1397 1398 1398 1398 1398 1398 1397 1398 1398 1399 1399 1397 1395 1394 1394 1392 1391 1391 1391 1391 1391 1391 1392 1394 1395 1395 1396 1397 1398 1400 1400 1400 1400
1371 1371 1371 1371 1371 1372 1372 1372 1373 1373 1373 1372 1372 1373 1373 1374 1375 1376 1377 1378 1380 1382 1384 1386 1387 1388 1390 1391 1391 1392 1393 1394 1395 1395 1395 1395 1395 1395 1396 1396 1396 1395 1394 1392 1392 1391 1389 1388 1388 1388 1389 1390 1391 1392 1392 1392 1393 1393 1395 1396 1397 1396 1396
1366 1366 1365 1365 1366 1367 1367 1368 1368 1368 1368 1368 1368 1369 1370 1370 1370 1371 1372 1373 1375 1377 1379 1381 1382 1384 1385 1386 1387 1388 1389 1391 1392 1393 1393 1393 1392 1392 1393 1393 1393 1392 1392 1391 1390 1390 1388 1387 1386 1386 1387 1388 1389 1389 1389 1388 1389 1390 1392 1393 1393 1393 1393
1361 1360 1360 1360 1360 1361 1362 1363 1363 1363 1363 1363 1364 1365 1366 1367 1367 1367 1368 1369 1370 1372 1374 1376 1378 1380 1381 1382 1383 1384 1385 1386 1388 1389 1389 1389 1389 1390 1390 1390 1390 1390 1389 1389 1388 1388 1387 1387 1386 1385 1385 1386 1387 1386 1385 1385 1386 1387 1389 1390 1390 1390 1390
1356 1355 1355 1355 1355 1356 1357 1358 1358 1359 1359 1359 1360 1361 1362 1363 1364 1364 1364 1365 1366 1368 1370 1372 1373 1375 1376 1377 1378 1379 1380 1381 1383 1384 1385 1385 1386 1386 1386 1386 1387 1387 1387 1387 1386 1386 1386 1386 1385 1385 1384 1384 1384 1383 1382 1382 1383 1384 1386 1387 1388 1387 1387
1350 1349 1349 1350 1350 1351 1352 1353 1353 1354 1354 1355 1355 1356 1357 1358 1359 1360 1360 1361 1362 1363 1365 1367 1368 1370 1371 1371 1373 1375 1376 1377 1379 1380 1380 1381 1382 1383 1383 1383 1384 1384 1385 1385 1385 1385 1385 1385 1384 1384 1384 1384 1383 1381 1380 1380 1380 1381 1383 1384 1384 1384 1384
1345 1344 1344 1344 1345 1345 1347 1348 1348 1349 1350 1351 1351 1351 1352 1354 1355 1355 1356 1357 1357 1358 1360 1362 1363 1365 1366 1366 1368 1370 1371 1373 1375 1375 1376 1377 1379 1380 1380 1380 1381 1381 1382 1382 1383 1383 1383 1383 1383 1383 1383 1383 1382 1381 1379 1379 1378 1379 1380 1381 1381 1381 1382
1339 1339 1338 1339 1339 1340 1342 1342 1342 1343 1344 1346 1346 1347 1348 1349 1350 1351 1351 1352 1352 1353 1355 1357 1358 1359 1361 1362 1363 1366 1367 1369 1370 1371 1372 1374 1375 1376 1377 1377 1378 1378 1379 1380 1380 1381 1381 1382 1382 1382 1382 1381 1381 1380 1379 1379 1378 1377 1378 1379 1379 1379 1380
1334 1333 1333 1333 1334 1335 1336 1337 1337 1338 1339 1340 1341 1342 1343 1344 1345 1346 1347 1347 1348 1349 1350 1352 1353 1354 1356 1358 1359 1361 1363 1365 1366 1367 1368 1370 1371 1372 1373 1374 1375 1376 1376 1377 1378 1378 1379 1379 1380 1380 1380 1380 1380 1379 1379 1379 1379 1378 1377 1377 1376 1376 1377
1328 1328 1328 1328 1329 1330 1331 1331 1331 1333 1334 1335 1336 1337 1338 1339 1340 1341 1342 1342 1343 1344 1345 1347 1348 1349 1351 1353 1355 1357 1359 1360 1362 1363 1364 1366 1367 1368 1369 1370 1372 1373 1373 1374 1375 1375 1376 1377 1377 1377 1378 1378 1379 1379 1378 1378 1378 1377 1376 1376 1375 1374 1375
1323 1322 1322 1323 1323 1324 1325 1325 1326 1328 1330 1331 1332 1332 1333 1334 1335 1336 1337 1338 1338 1340 1341 1343 1344 1345 1347 1348 1350 1352 1354 1356 1357 1359 1361 1362 1363 1364 1365 1367 1368 1369 1370 1371 1372 1373 1374 1374 1374 1375 1376 1376 1377 1377 1377 1376 1376 1375 1375 1375 1375 1374 1374
1318 1317 1317 1317 1318 1319 1319 1320 1322 1324 1325 1327 1328 1329 1329 1328 1329 1331 1332 1333 1334 1335 1337 1338 1340 1341 1342 1343 1346 1348 1349 1351 1353 1355 1357 1358 1360 1361 1362 1363 1365 1366 1367 1368 1369 1370 1371 1371 1372 1373 1373 1374 1375 1375 1375 1375 1375 1375 1374 1374 1374 1374 1374
1312 1311 1311 1312 1312 1313 1314 1315 1317 1320 1321 1321 1323 1326 1325 1323 1324 1326 1328 1329 1330 1331 1332 1334 1336 1337 1337 1339 1341 1343 1345 1347 1349 1351 1353 1355 1356 1357 1358 1359 1361 1363 1364 1365 1366 1367 1368 1369 1370 1370 1371 1372 1373 1374 1374 1374 1374 1374 1373 1373 1373 1373 1373
1306 1305 1305 1306 1307 1308 1309 1310 1312 1315 1316 1317 1319 1321 1322 1321 1320 1322 1323 1324 1325 1327 1328 1330 1332 1333 1334 1335 1336 1338 1340 1343 1345 1347 1349 1350 1352 1353 1354 1356 1358 1359 1361 1362 1363 1363 1364 1366 1367 1368 1370 1371 1372 1372 1372 1372 1373 1373 1373 1373 1372 1372 1372
1300 1299 1299 1300 1301 1303 1304 1305 1308 1310 1311 1313 1315 1316 1318 1319 1319 1319 1319 1320 1321 1322 1324 1326 1327 1329 1330 1331 1332 1334 1336 1339 1341 1343 1345 1346 1348 1349 1350 1352 1353 1355 1357 1358 1359 1360 1361 1363 1365 1366 1368 1369 1370 1370 1370 1371 1371 1371 1372 1372 1372 1371 1370
1294 1293 1293 1295 1296 1298 1298 1299 1303 1306 1307 1308 1310 1312 1314 1315 1315 1316 1316 1316 1317 1318 1320 1322 1323 1325 1326 1327 1328 1330 1333 1335 1338 1340 1342 1343 1344 1346 1347 1349 1350 1352 1354 1355 1356 1357 1358 1360 1362 1364 1365 1366 1367 1367 1368 1369 1369 1369 1370 1370 1370 1370 1369
1288 1288 1288 1289 1291 1292 1293 1295 1298 1301 1302 1304 1306 1308 1309 1310 1311 1312 1312 1313 1314 1315 1316 1317 1319 1321 1322 1323 1324 1326 1329 1332 1335 1337 1339 1340 1342 1344 1345 1346 1347 1350 1351 1352 1353 1354 1356 1358 1360 1361 1362 1364 1364 1365 1366 1367 1367 1367 1368 1369 1369 1368 1368
1284 1283 1284 1284 1285 1287 1288 1290 1293 1296 1298 1299 1302 1304 1305 1305 1306 1307 1308 1309 1311 1312 1313 1314 1316 1317 1318 1319 1321 1323 1326 1329 1332 1334 1335 1337 1339 1341 1342 1343 1345 1347 1348 1349 1351 1352 1354 1355 1357 1359 1360 1361 1362 1364 1364 1364 1365 1366 1367 1367 1367 1367 1367
1280 1279 1279 1280 1281 1282 1284 1286 1289 1291 1293 1295 1297 1300 1301 1301 1302 1303 1304 1305 1307 1309 1310 1311 1313 1314 1315 1316 1318 1320 1323 1326 1329 1331 1333 1335 1337 1338 1339 1340 1342 1344 1345 1346 1348 1349 1351 1352 1354 1356 1357 1358 1360 1362 1362 1362 1363 1364 1365 1365 1365 1366 1366
1276 1276 1276 1276 1277 1278 1280 1282 1284 1286 1289 1291 1293 1295 1297 1297 1297 1298 1300 1302 1304 1305 1306 1308 1309 1311 1312 1314 1315 1318 1321 1324 1326 1329 1330 1332 1334 1335 1336 1338 1341 1342 1343 1344 1346 1347 1348 1350 1351 1353 1355 1356 1357 1358 1360 1360 1360 1361 1362 1363 1364 1365 1365
1273 1272 1272 1273 1273 1274 1276 1278 1280 1282 1285 1287 1288 1290 1292 1293 1292 1294 1296 1298 1300 1302 1303 1304 1306 1306 1308 1310 1313 1315 1318 1321 1323 1326 1328 1330 1331 1332 1334 1337 1338 1340 1341 1343 1344 1345 1346 1348 1349 1350 1351 1353 1354 1355 1356 1357 1358 1359 1360 1361 1362 1363 1364
1270 1269 1269 1270 1270 1271 1273 1274 1276 1278 1281 1283 1284 1286 1288 1288 1289 1291 1293 1295 1297 1298 1300 1302 1303 1304 1305 1307 1310 1313 1316 1318 1321 1323 1326 1327 1329 1331 1333 1335 1336 1337 1339 1340 1341 1343 1344 1345 1346 1347 1348 1350 1351 1352 1354 1355 1355 1356 1357 1359 1360 1362 1362
1267 1267 1267 1267 1267 1268 1269 1271 1272 1274 1277 1279 1280 1281 1283 1284 1286 1288 1290 1292 1293 1295 1297 1299 1300 1302 1304 1306 1308 1310 1314 1316 1319 1321 1323 1325 1327 1329 1331 1333 1334 1335 1336 1337 1339 1340 1341 1342 1343 1345 1346 1347 1348 1350 1351 1352 1353 1354 1355 1356 1358 1360 1361
1264 1264 1264 1264 1265 1265 1266 1267 1269 1271 1273 1274 1276 1277 1278 1280 1283 1286 1287 1289 1291 1293 1295 1296 1298 1300 1302 1304 1306 1309 1312 1315 1317 1319 1321 1323 1325 1327 1329 1330 1332 1333 1334 1335 1336 1337 1338 1339 1340 1341 1343 1345 1346 1347 1348 1350 1351 1352 1353 1354 1356 1357 1359
1261 1261 1262 1262 1262 1263 1264 1265 1266 1268 1269 1271 1271 1273 1274 1276 1279 1282 1285 1287 1288 1290 1293 1295 1297 1299 1301 1303 1305 1308 1311 1313 1315 1317 1319 1321 1323 1324 1326 1327 1329 1330 1331 1332 1333 1334 1336 1337 1338 1339 1341 1342 1344 1345 1346 1347 1349 1350 1351 1352 1354 1355 1357
1259 1259 1259 1260 1260 1261 1261 1262 1263 1264 1266 1267 1268 1268 1270 1272 1275 1278 1282 1284 1287 1289 1291 1293 1295 1298 1299 1301 1304 1306 1308 1310 1312 1314 1316 1318 1320 1322 1323 1325 1327 1328 1329 1330 1331 1332 1334 1335 1337 1338 1339 1340 1341 1342 1344 1345 1346 1347 1349 1350 1352 1353 1354
1257 1257 1257 1257 1258 1259 1259 1260 1261 1262 1263 1263 1264 1265 1267 1269 1272 1275 1278 1282 1284 1287 1289 1291 1293 1295 1298 1300 1302 1304 1306 1308 1310 1312 1314 1315 1317 1319 1321 1323 1324 1326 1327 1329 1330 1331 1332 1333 1335 1336 1337 1338 1339 1340 1341 1343 1344 1345 1346 1348 1349 1350 1351
1255 1255 1255 1256 1256 1257 1257 1258 1258 1259 1260 1260 1262 1263 1265 1267 1269 1272 1275 1279 1281 1284 1287 1289 1291 1293 1296 1298 1300 1302 1304 1306 1308 1310 1311 1313 1314 1316 1318 1320 1322 1323 1325 1326 1328 1329 1330 1331 1333 1334 1335 1337 1337 1338 1339 1340 1342 1343 1344 1345 1347 1348 1349
1254 1253 1254 1255 1255 1255 1255 1256 1256 1257 1258 1259 1260 1262 1264 1265 1268 1271 1274 1277 1280 1282 1285 1287 1289 1291 1293 1295 1297 1299 1301 1303 1305 1307 1309 1310 1311 1313 1315 1317 1319 1320 1322 1324 1325 1326 1328 1329 1331 1332 1333 1335 1336 1336 1337 1337 1339 1340 1341 1342 1344 1345 1346
1253 1252 1252 1253 1253 1253 1253 1254 1255 1256 1257 1258 1260 1262 1264 1266 1268 1271 1274 1277 1279 1281 1283 1285 1287 1289 1290 1293 1295 1297 1299 1301 1303 1304 1306 1307 1309 1311 1312 1314 1316 1318 1319 1321 1322 1323 1325 1326 1328 1329 1330 1332 1333 1335 1335 1336 1336 1338 1339 1340 1341 1342 1343
1252 1252 1252 1252 1252 1252 1252 1252 1253 1255 1257 1259 1261 1263 1265 1267 1269 1272 1274 1276 1278 1280 1282 1284 1285 1287 1289 1291 1293 1295 1297 1299 1300 1302 1303 1305 1306 1308 1310 1311 1313 1314 1316 1317 1319 1320 1322 1323 1325 1326 1327 1329 1330 1332 1334 1334 1335 1336 1337 1338 1339 1340 1341
1251 1252 1252 1252 1252 1251 1251 1251 1253 1254 1256 1259 1262 1264 1266 1268 1270 1272 1274 1276 1277 1279 1281 1283 1284 1286 1288 1290 1292 1293 1295 1297 1298 1299 1301 1302 1304 1305 1307 1308 1309 1311 1313 1314 1316 1317 1318 1319 1321 1322 1324 1325 1327 1329 1330 1332 1333 1334 1335 1336 1337 1338 1339
1251 1251 1252 1252 1252 1252 1252 1252 1253 1255 1257 1259 1261 1264 1266 1268 1269 1271 1273 1275 1277 1278 1280 1282 1283 1285 1286 1288 1289 1291 1293 1294 1295 1296 1298 1299 1301 1302 1303 1305 1307 1309 1311 1312 1312 1313 1315 1316 1317 1319 1320 1322 1324 1325 1327 1328 1330 1332 1333 1334 1335 1336 1337
1250 1251 1252 1252 1252 1253 1254 1254 1255 1256 1258 1259 1261 1264 1266 1267 1268 1270 1272 1273 1275 1277 1278 1280 1281 1283 1284 1285 1287 1289 1290 1292 1293 1294 1295 1297 1298 1299 1301 1303 1305 1307 1308 1308 1309 1311 1312 1313 1314 1315 1317 1319 1320 1322 1323 1325 1327 1329 1330 1331 1332 1333 1335
1250 1251 1252 1252 1252 1253 1255 1255 1256 1258 1260 1261 1262 1264 1265 1266 1268 1270 1271 1273 1274 1275 1277 1278 1280 1281 1282 1284 1285 1287 1288 1289 1291 1292 1293 1295 1296 1297 1299 1301 1302 1303 1305 1306 1307 1308 1309 1310 1311 1313 1314 1316 1317 1319 1320 1322 1323 1325 1327 1329 1330 1331 1332
1251 1252 1253 1253 1253 1254 1255 1256 1258 1259 1260 1261 1262 1263 1264 1266 1268 1269 1270 1272 1273 1274 1276 1277 1278 1279 1281 1282 1283 1285 1286 1288 1289 1289 1291 1292 1294 1295 1297 1298 1299 1300 1302 1303 1304 1305 1306 1307 1309 1310 1312 1313 1315 1316 1318 1319 1320 1322 1324 1326 1327 1329 1330
Wind_Speed
46 46 45 44 42 39 36 35 34 35 35 35 36 37 36 35 35 35 35 34 34 33 33 32 31 31 28 26 25 25 25 25 24 24 24 23 22 20 15 13 15 17 17 16 16 18 20 19 19 22 25 27 26 24 24 26 26 27 27 26 26 26 25
45 45 45 45 43 40 37 35 34 34 34 35 36 36 36 35 35 35 35 35 35 35 34 34 33 32 30 29 28 27 26 25 21 20 21 20 20 19 16 14 15 15 14 15 14 14 17 18 18 20 21 24 27 28 27 27 27 27 28 28 27 27 27
45 45 45 45 44 41 38 35 34 34 34 34 35 36 35 35 35 35 36 35 35 34 34 33 32 32 31 29 28 28 27 25 21 17 17 17 16 16 14 13 14 14 13 13 12 12 13 16 17 18 18 19 22 26 29 30 29 28 29 30 30 29 27
45 44 44 45 44 43 39 36 35 34 34 34 34 35 35 35 35 35 36 36 36 35 35 33 30 30 31 30 28 29 28 27 25 20 18 18 16 15 14 12 12 13 12 12 12 12 11 13 15 17 17 18 19 21 24 28 29 30 30 31 30 30 29
44 44 44 45 45 44 41 37 35 34 34 34 33 34 35 35 36 36 37 37 37 36 35 33 30 29 31 32 31 30 30 29 28 25 23 22 20 18 17 14 13 13 12 12 12 12 11 11 13 15 16 17 18 19 19 22 25 28 30 31 31 31 31
43 44 44 45 45 45 42 38 36 34 34 34 33 33 32 31 33 36 36 35 34 34 32 31 31 31 31 34 33 31 31 30 28 28 28 26 24 22 20 18 17 14 12 13 13 12 11 11 12 14 15 15 16 18 19 19 20 22 26 30 33 33 33
43 43 43 44 44 44 42 38 36 34 34 34 33 33 31 28 30 32 32 31 33 34 32 31 33 34 33 35 35 32 32 31 29 29 30 28 26 24 23 22 21 18 16 16 15 13 12 11 11 12 13 13 13 15 16 17 17 19 22 26 30 33 33
42 42 42 43 43 43 42 39 36 34 34 34 33 32 30 27 27 28 28 30 31 32 33 33 34 35 35 36 36 33 32 31 29 30 30 28 27 27 27 25 23 21 19 19 18 16 14 12 11 11 12 11 11 13 15 14 15 17 18 19 23 27 31
40 41 41 42 42 42 42 40 38 35 34 34 33 32 30 27 27 28 29 30 30 31 33 33 33 34 35 36 35 33 32 30 30 30 29 27 27 28 28 26 24 22 21 20 19 18 16 13 12 11 11 10 10 11 12 12 12 14 14 14 16 19 23
39 40 41 41 42 42 42 41 39 36 34 33 31 30 30 29 29 30 31 32 32 33 33 32 32 33 33 34 34 33 31 31 30 29 28 27 28 29 29 27 25 24 23 21 20 19 16 14 13 12 11 11 10 9 10 10 11 12 12 12 13 14 16
39 39 40 41 41 42 43 43 40 37 33 31 28 27 29 31 32 33 33 33 34 34 32 31 31 31 32 32 33 32 32 31 31 29 28 28 28 28 28 27 26 25 24 22 22 20 18 16 16 14 12 11 10 8 8 8 9 10 10 10 11 12 12
39 39 40 40 41 42 43 44 41 36 33 30 27 27 29 33 33 33 33 33 33 33 32 31 30 30 31 32 31 32 31 31 31 30 29 28 28 28 28 28 27 26 25 24 22 21 20 19 18 16 15 13 10 9 7 6 7 8 9 9 10 11 9
39 39 39 39 41 42 43 43 41 36 32 29 27 27 30 33 33 31 30 30 31 30 30 30 28 28 30 31 31 31 31 31 32 31 30 28 27 27 28 27 27 27 26 24 23 23 22 21 19 17 15 12 10 9 7 7 7 8 8 8 9 10 11
39 39 39 39 40 40 42 43 40 35 31 28 27 26 29 31 31 30 29 29 29 28 28 28 27 28 30 31 31 31 30 31 33 32 30 29 28 28 28 28 28 28 27 25 25 25 24 21 19 17 15 14 12 11 10 10 11 10 10 9 9 9 11
38 38 38 38 38 38 41 43 39 34 31 27 26 26 27 30 31 30 30 30 29 29 28 27 27 27 29 30 32 31 29 30 33 32 30 29 28 29 29 28 29 29 27 27 26 25 23 21 19 17 16 16 16 15 14 13 14 14 13 13 11 11 13
37 37 37 37 37 38 41 42 37 33 30 27 25 26 27 29 31 32 31 30 29 29 29 28 27 27 28 29 31 30 27 28 31 31 29 29 28 27 26 27 27 27 26 26 25 23 20 17 16 15 14 14 15 16 15 14 14 15 15 14 14 14 15
36 36 36 36 36 37 39 40 36 32 30 27 24 25 27 30 32 33 34 32 29 28 27 28 27 27 27 28 29 28 26 26 27 28 28 28 26 25 25 26 27 26 25 25 25 23 21 18 15 13 11 10 11 12 12 12 14 16 15 15 16 17 15
35 35 35 35 35 36 37 38 35 32 29 26 24 25 27 30 31 32 32 31 28 26 26 25 25 24 25 26 27 26 25 25 25 26 27 26 24 24 26 27 26 25 25 26 25 23 23 22 20 17 15 13 11 11 12 14 15 14 13 14 14 14 12
33 33 34 33 34 34 35 36 33 30 27 24 23 25 26 29 31 31 29 27 25 25 26 25 24 25 26 26 25 25 25 25 26 26 26 25 25 27 27 25 23 22 22 22 22 21 21 21 21 21 21 20 17 14 15 17 16 14 13 14 13 11 9
31 31 32 32 33 34 34 33 31 29 25 23 22 24 26 29 32 31 28 26 23 23 24 25 27 28 28 27 25 24 25 27 27 27 26 25 26 28 26 23 22 20 18 17 17 17 18 19 19 20 21 22 21 18 17 19 20 19 16 15 16 15 13
29 30 31 31 32 32 32 31 30 27 23 21 22 23 24 28 31 31 27 24 22 22 22 24 25 26 26 25 25 25 26 29 29 28 27 26 25 24 22 19 19 18 17 16 16 16 18 19 19 19 18 19 21 21 19 19 20 21 20 18 18 19 18
28 29 29 30 31 31 30 29 28 25 21 20 22 23 25 27 29 27 25 23 22 22 22 22 22 22 22 23 24 26 28 29 30 28 27 25 22 20 18 16 16 16 16 17 17 17 17 16 16 16 16 16 18 19 19 19 21 22 22 20 18 18 19
28 29 29 29 30 30 29 28 26 23 21 20 22 23 25 27 26 24 24 24 23 22 21 21 21 21 20 21 24 27 28 28 29 27 24 22 20 18 17 16 16 16 16 17 18 18 18 18 17 16 16 16 17 18 20 21 23 24 24 21 19 18 17
28 28 28 29 30 29 29 27 25 22 20 20 21 23 25 27 26 24 24 24 23 21 20 19 20 20 19 19 23 27 26 25 26 25 23 23 21 18 16 16 16 16 16 18 19 20 19 19 19 18 16 15 15 17 19 21 23 24 25 24 21 19 17
27 28 28 29 29 29 27 26 24 21 19 19 21 23 24 26 27 26 25 24 23 21 19 18 17 18 18 18 23 26 25 24 23 23 24 24 21 17 17 17 16 15 14 16 20 21 20 19 19 19 17 15 14 14 15 18 19 21 23 24 23 22 21
27 27 27 28 28 27 26 24 22 19 17 19 20 21 22 25 28 28 26 24 23 21 19 18 17 17 18 19 21 24 25 23 21 21 23 23 21 19 18 17 16 15 15 14 16 17 17 16 14 14 14 15 15 14 13 14 16 17 17 19 21 22 23
26 26 27 27 26 25 24 22 20 17 17 18 19 19 19 22 26 29 26 24 24 22 21 20 20 19 19 20 20 22 23 22 20 19 19 20 20 19 18 17 16 16 16 15 14 13 14 15 15 14 14 15 16 17 15 14 14 14 15 17 19 21 23
25 25 26 26 24 24 22 19 16 16 18 17 16 16 16 18 23 26 26 24 23 23 22 22 21 20 20 20 21 21 22 21 20 18 17 18 19 19 19 19 19 18 18 18 18 17 17 20 21 19 17 15 16 19 20 17 15 15 17 19 20 20 21
24 23 23 23 22 20 18 17 15 15 15 14 13 12 14 16 19 22 23 21 20 21 22 22 21 21 21 21 20 19 19 19 19 19 18 17 18 20 21 21 22 22 21 21 21 21 22 22 21 20 19 17 16 17 19 19 17 16 18 20 21 21 21
19 20 19 19 18 16 15 15 13 8 7 7 8 10 12 14 15 17 18 17 16 19 21 19 17 18 20 20 17 16 17 17 17 18 20 20 21 22 21 21 21 22 22 21 21 23 23 21 19 19 19 19 18 16 15 16 17 17 17 19 21 22 21
14 17 17 14 13 12 12 13 10 7 5 4 7 10 12 14 15 15 16 16 15 17 19 18 17 18 18 17 15 15 17 17 17 19 21 22 23 22 20 18 19 21 22 23 24 24 23 20 19 18 18 18 19 19 16 14 15 16 17 18 20 21 21
8 12 15 14 11 9 7 8 8 11 13 9 8 11 13 13 14 15 15 14 13 14 15 14 15 16 17 17 17 17 18 19 20 21 21 20 19 20 21 21 20 20 20 21 21 21 21 19 19 19 19 18 18 19 20 19 16 15 16 18 19 20 20
7 8 12 13 12 9 4 5 9 13 15 11 9 11 12 12 13 13 14 15 16 15 14 14 15 15 16 18 18 18 19 20 21 22 23 22 21 21 23 22 20 18 17 17 17 17 17 17 17 17 18 18 18 19 22 23 22 18 16 17 18 19 20
9 8 9 10 12 9 5 7 11 13 14 11 9 11 12 12 13 14 14 15 16 14 14 15 16 16 17 19 19 18 19 21 22 22 23 23 23 22 22 20 18 17 16 16 16 16 16 17 17 17 17 17 18 18 19 21 24 24 21 18 18 19 19
6 7 5 5 8 9 8 8 9 11 11 8 7 9 12 12 12 11 12 13 14 13 13 13 14 14 16 18 18 18 18 19 20 21 21 22 22 22 21 19 18 17 17 17 17 17 17 16 16 16 16 17 17 18 17 18 21 25 25 22 18 18 18
5 4 3 2 5 8 10 10 9 9 8 8 9 11 12 11 8 7 8 10 13 15 15 14 14 14 15 16 17 17 18 18 19 20 21 22 22 21 20 19 19 19 18 17 17 17 16 15 15 15 16 16 16 17 17 17 17 20 24 25 22 19 18
Wind_Direction
275 271 265 261 258 257 256 253 250 248 245 242 241 241 240 238 236 236 237 237 239 240 242 240 240 243 244 243 243 244 246 248 251 253 252 248 246 246 240 239 245 251 263 273 275 277 280 276 268 261 258 258 256 253 247 241 239 236 234 233 232 232 230
276 271 266 261 257 256 255 253 251 248 245 241 238 239 239 237 235 235 236 236 237 238 241 241 241 242 243 243 242 243 245 245 245 250 251 247 245 244 237 232 238 246 257 267 273 278 281 283 282 276 271 265 259 256 252 246 241 238 235 234 232 231 229
277 271 266 261 257 255 254 253 251 248 245 242 239 237 236 235 234 233 234 235 235 236 238 239 241 241 240 240 240 242 243 239 233 233 237 238 239 239 232 224 229 239 251 262 269 272 276 280 283 281 279 276 267 260 256 250 245 240 238 235 233 232 230
276 271 264 259 256 254 253 253 251 248 245 242 240 237 234 233 232 232 233 234 236 236 237 237 238 239 239 238 237 240 242 240 237 234 232 232 234 234 232 226 227 234 245 257 264 266 268 275 280 281 279 279 277 271 263 256 251 246 242 238 235 234 232
276 270 264 258 255 253 252 253 252 249 244 242 239 237 234 233 232 232 234 236 238 239 239 237 235 236 238 239 239 240 242 243 243 242 237 234 237 239 239 237 235 235 238 248 256 262 266 269 274 279 279 277 278 277 272 262 254 250 247 244 240 236 233
276 270 264 260 256 253 252 253 252 249 244 241 238 235 233 233 233 235 237 237 238 238 237 235 234 234 236 238 240 241 243 244 244 242 241 238 238 240 240 239 240 240 239 243 250 257 263 266 270 276 279 280 280 280 280 274 262 253 249 246 243 240 237
277 271 267 261 257 253 251 252 251 249 245 241 238 235 233 233 235 237 237 237 239 239 236 234 234 233 233 237 241 242 243 244 242 241 243 241 238 237 237 237 240 242 242 244 247 250 254 259 265 271 276 280 282 281 281 281 275 263 254 249 247 245 242
278 273 268 261 257 253 250 251 250 249 246 242 238 235 233 231 233 235 236 237 240 242 240 237 235 234 234 238 243 243 243 244 241 240 242 240 237 236 235 237 239 240 242 244 246 249 253 256 260 265 271 274 274 272 273 277 280 277 269 259 253 249 246
279 273 267 260 256 252 249 249 249 249 248 244 240 236 232 229 231 233 234 236 239 241 243 242 239 238 238 240 243 244 243 243 241 240 241 239 236 235 235 236 235 236 240 242 245 250 253 255 258 259 263 267 266 270 279 282 279 278 279 274 264 254 247
280 272 267 260 256 252 248 248 250 252 252 248 244 239 232 228 229 231 233 237 239 242 245 248 246 243 240 240 241 242 241 241 240 239 239 238 235 235 235 234 231 232 236 239 244 251 253 253 255 255 254 259 262 267 276 278 273 273 277 279 276 266 252
281 273 267 261 256 251 248 249 252 254 254 249 242 237 233 231 230 232 235 238 242 245 247 249 248 246 243 240 239 239 237 237 237 236 236 236 234 235 236 234 231 231 235 238 242 248 252 252 256 261 263 263 265 268 270 272 274 275 272 270 274 273 263
283 274 267 262 256 252 250 251 253 255 256 249 237 229 232 237 237 236 239 242 245 248 248 248 246 244 244 242 239 237 235 231 230 229 231 233 232 234 236 234 230 231 236 241 244 247 252 257 261 267 271 271 272 274 274 270 265 268 270 266 267 270 259
283 274 267 262 257 254 252 252 252 255 255 248 235 225 227 238 246 246 246 248 248 247 246 244 241 239 241 243 241 238 234 229 225 224 227 229 228 232 236 233 228 229 235 242 247 250 254 257 260 266 273 279 281 277 275 276 273 274 274 266 268 268 248
281 273 267 262 258 256 254 253 253 255 254 244 234 225 222 232 244 250 252 253 252 249 246 244 240 236 238 243 243 239 232 226 223 223 224 224 224 228 233 231 227 228 234 240 245 248 252 255 258 263 272 279 279 274 272 281 287 285 279 274 286 291 268
279 272 267 262 260 257 253 253 254 256 254 244 232 226 222 226 235 243 249 253 254 253 251 248 246 243 241 242 243 240 232 225 222 222 222 222 224 227 229 228 226 228 234 241 243 244 245 250 257 265 272 274 272 270 271 278 284 283 279 277 280 284 279
277 271 266 262 259 255 253 254 255 255 255 246 234 227 224 225 229 233 240 246 250 254 254 251 250 248 244 241 240 239 233 224 221 219 220 222 223 224 226 229 231 235 241 246 248 249 250 254 262 269 272 271 267 264 264 268 271 268 266 269 272 275 280
276 270 265 261 257 253 253 255 255 255 253 247 237 227 221 223 226 229 233 237 241 247 253 254 251 248 244 240 238 234 227 220 218 217 218 218 217 218 225 233 237 239 242 245 249 254 259 263 266 267 268 267 264 262 258 251 250 252 254 261 269 273 276
274 268 264 261 257 255 255 255 256 257 254 246 234 223 222 225 227 230 233 234 234 236 240 246 245 241 240 239 234 228 219 212 212 213 212 212 213 218 227 235 238 240 242 245 246 247 250 253 256 260 265 266 260 255 255 250 245 249 257 261 264 269 273
270 264 261 260 258 256 256 256 258 258 253 244 231 221 223 227 228 230 233 233 231 230 229 231 231 230 235 239 234 224 212 205 206 211 210 209 214 221 227 231 236 241 242 241 238 235 235 240 244 247 253 258 256 249 248 252 253 253 257 263 267 270 270
267 263 260 259 258 257 256 257 260 258 252 244 233 223 221 226 229 230 230 228 227 226 226 228 231 233 236 237 232 221 208 199 201 208 211 212 215 220 223 225 230 236 239 237 236 236 239 244 247 245 243 247 250 249 246 249 254 252 251 257 265 267 267
266 262 259 258 257 257 258 259 260 259 253 244 236 226 221 226 230 229 228 225 223 222 224 227 232 238 238 231 223 216 206 197 197 203 210 215 218 219 219 220 224 229 233 235 237 240 243 246 249 248 242 239 242 245 244 242 244 244 244 248 257 261 264
264 261 259 258 257 258 260 261 261 260 253 242 237 231 224 225 229 227 223 221 220 220 222 221 223 230 234 228 216 208 202 198 198 201 208 216 220 217 214 215 221 226 231 233 234 235 235 235 234 233 232 233 236 239 240 240 240 242 244 245 249 255 257
263 260 259 257 257 259 262 263 262 260 253 242 238 236 229 225 225 223 219 218 219 218 219 222 224 225 229 226 212 203 201 201 201 204 209 212 212 209 207 210 217 224 229 232 235 236 236 237 238 237 234 234 235 236 237 239 241 245 249 249 250 252 255
263 260 258 257 258 260 262 264 264 261 255 247 241 239 232 225 221 220 219 218 220 219 219 225 229 226 224 220 206 199 200 204 207 211 212 209 207 207 208 211 219 225 228 231 234 236 236 238 243 246 243 240 242 242 240 240 241 243 248 253 255 257 259
263 261 260 258 259 261 263 267 268 263 257 252 247 242 234 224 217 215 217 218 220 220 218 220 224 222 217 208 201 200 204 207 209 210 208 206 207 209 211 215 221 227 230 228 226 227 230 234 241 248 249 248 251 253 246 243 245 245 244 248 252 255 259
264 263 261 260 261 263 264 268 271 268 259 253 249 244 234 223 213 209 212 217 220 220 220 220 221 220 212 204 203 206 208 208 209 208 209 211 213 215 218 222 225 226 225 218 211 212 215 217 225 237 246 252 261 263 251 241 244 245 239 237 239 244 250
266 263 262 262 262 264 267 270 271 268 262 255 249 242 233 222 213 207 208 215 219 220 223 220 213 210 210 210 212 212 211 212 213 212 213 217 218 218 220 223 222 220 219 215 210 210 212 213 217 225 235 247 259 261 254 246 243 240 233 230 230 233 241
271 266 264 265 264 266 271 274 269 263 259 257 252 242 229 221 214 206 204 209 214 217 222 220 212 211 212 211 212 214 216 218 218 214 212 217 221 223 222 219 215 214 218 220 219 221 226 229 231 233 233 236 246 252 254 251 244 237 235 233 231 231 235
275 273 269 268 269 272 272 270 266 263 262 259 251 239 226 215 208 202 199 203 210 216 220 221 218 214 209 203 203 209 212 213 213 209 206 208 217 225 228 226 223 224 230 234 233 232 234 233 232 233 232 230 234 247 255 254 244 235 234 233 231 231 233
274 278 278 272 270 272 270 264 259 259 272 268 240 221 213 201 192 188 187 186 193 199 200 198 196 194 192 193 197 202 203 203 204 207 210 213 219 229 236 237 232 229 231 233 233 234 235 233 231 234 236 231 227 230 242 250 248 239 233 231 231 231 231
264 265 276 280 275 271 266 260 244 203 187 221 218 204 198 190 184 183 182 178 179 185 187 188 190 192 194 198 202 206 210 213 215 218 223 226 228 231 233 231 228 228 228 230 235 238 237 232 227 225 224 222 220 218 219 230 244 246 240 236 236 235 232
269 249 258 270 281 286 269 246 216 174 160 169 199 201 194 191 190 192 192 192 194 196 197 200 203 206 210 214 214 216 219 220 220 221 220 219 220 220 218 218 224 230 233 237 240 239 232 225 219 216 216 216 216 215 213 212 218 230 238 239 239 238 235
280 260 256 256 263 277 258 182 174 164 154 154 177 189 187 191 195 197 200 204 205 206 209 210 207 205 206 205 206 209 210 209 211 216 215 210 208 213 218 224 230 233 235 237 236 229 221 217 214 213 214 216 215 216 217 213 210 212 224 234 236 234 232
259 259 268 258 245 238 205 161 161 164 158 152 160 175 185 194 196 197 199 198 196 194 193 192 193 194 195 197 202 211 216 216 218 221 220 215 214 219 225 228 230 231 234 234 230 223 219 219 218 216 216 217 219 221 222 220 215 213 216 227 234 233 227
262 235 246 256 231 211 195 177 164 161 162 162 165 179 194 201 200 200 203 202 201 200 193 189 192 199 204 209 216 226 230 227 223 222 220 218 220 225 229 230 233 237 239 234 226 222 220 218 218 218 218 218 220 221 221 221 221 217 216 221 228 228 222
285 223 186 186 195 196 201 200 186 173 175 187 188 186 189 188 181 186 204 213 219 223 224 223 225 226 226 228 231 234 233 225 218 217 218 219 223 230 236 239 242 243 238 230 224 221 219 216 215 217 217 218 222 224 223 224 224 219 218 220 221 219 217